owner,sensor,date,latitude,longitude,vertical_datum,sea_water_temperature,qcFlag 
ENP,ioos.station.NOAA.NDBC:BNKF1:1,2019-11-01T00:00:00Z,25.0870,-80.5190,1.0,29.22,11111222 
ENP,ioos.station.NOAA.NDBC:BNKF1:1,2019-11-01T01:00:00Z,25.0870,-80.5190,1.0,29.1,11111222 
ENP,ioos.station.NOAA.NDBC:BNKF1:1,2019-11-01T02:00:00Z,25.0870,-80.5190,1.0,29.02,11111222 
ENP,ioos.station.NOAA.NDBC:BNKF1:1,2019-11-01T04:00:00Z,25.0870,-80.5190,1.0,28.86,11111222 
ENP,ioos.station.NOAA.NDBC:BNKF1:1,2019-11-01T05:00:00Z,25.0870,-80.5190,1.0,28.76,11111222 
ENP,ioos.station.NOAA.NDBC:BNKF1:1,2019-11-01T06:00:00Z,25.0870,-80.5190,1.0,28.66,11111222 
ENP,ioos.station.NOAA.NDBC:BNKF1:1,2019-11-01T07:00:00Z,25.0870,-80.5190,1.0,28.56,11111222 
ENP,ioos.station.NOAA.NDBC:BNKF1:1,2019-11-01T08:00:00Z,25.0870,-80.5190,1.0,28.5,11111222 
ENP,ioos.station.NOAA.NDBC:BNKF1:1,2019-11-01T09:00:00Z,25.0870,-80.5190,1.0,28.44,11111222 
ENP,ioos.station.NOAA.NDBC:BNKF1:1,2019-11-01T10:00:00Z,25.0870,-80.5190,1.0,28.32,11111222 
ENP,ioos.station.NOAA.NDBC:BNKF1:1,2019-11-01T11:00:00Z,25.0870,-80.5190,1.0,28.24,11111222 
ENP,ioos.station.NOAA.NDBC:BNKF1:1,2019-11-01T12:00:00Z,25.0870,-80.5190,1.0,28.17,11111222 
ENP,ioos.station.NOAA.NDBC:BNKF1:1,2019-11-01T13:00:00Z,25.0870,-80.5190,1.0,28.15,11111222 
ENP,ioos.station.NOAA.NDBC:BNKF1:1,2019-11-01T15:00:00Z,25.0870,-80.5190,1.0,28.31,11111222 
ENP,ioos.station.NOAA.NDBC:BNKF1:1,2019-11-01T17:00:00Z,25.0870,-80.5190,1.0,28.89,11111222 
ENP,ioos.station.NOAA.NDBC:BNKF1:1,2019-11-01T18:00:00Z,25.0870,-80.5190,1.0,29.22,11111222 
ENP,ioos.station.NOAA.NDBC:BNKF1:1,2019-11-01T19:00:00Z,25.0870,-80.5190,1.0,29.59,11111222 
ENP,ioos.station.NOAA.NDBC:BNKF1:1,2019-11-01T20:00:00Z,25.0870,-80.5190,1.0,29.72,11111222 
ENP,ioos.station.NOAA.NDBC:BNKF1:1,2019-11-01T21:00:00Z,25.0870,-80.5190,1.0,29.79,11111222 
ENP,ioos.station.NOAA.NDBC:BNKF1:1,2019-11-01T23:00:00Z,25.0870,-80.5190,1.0,29.74,11111222 
ENP,ioos.station.NOAA.NDBC:BNKF1:1,2019-11-02T00:00:00Z,25.0870,-80.5190,1.0,29.57,11111222 
ENP,ioos.station.NOAA.NDBC:BNKF1:1,2019-11-02T02:00:00Z,25.0870,-80.5190,1.0,29.21,11111222 
ENP,ioos.station.NOAA.NDBC:BNKF1:1,2019-11-02T04:00:00Z,25.0870,-80.5190,1.0,28.91,11111222 
ENP,ioos.station.NOAA.NDBC:BNKF1:1,2019-11-02T05:00:00Z,25.0870,-80.5190,1.0,28.88,11111222 
ENP,ioos.station.NOAA.NDBC:BNKF1:1,2019-11-02T06:00:00Z,25.0870,-80.5190,1.0,28.76,11111222 
ENP,ioos.station.NOAA.NDBC:BNKF1:1,2019-11-02T07:00:00Z,25.0870,-80.5190,1.0,28.65,11111222 
ENP,ioos.station.NOAA.NDBC:BNKF1:1,2019-11-02T08:00:00Z,25.0870,-80.5190,1.0,28.37,11111222 
ENP,ioos.station.NOAA.NDBC:BNKF1:1,2019-11-02T09:00:00Z,25.0870,-80.5190,1.0,28.26,11111222 
ENP,ioos.station.NOAA.NDBC:BNKF1:1,2019-11-02T10:00:00Z,25.0870,-80.5190,1.0,28.2,11111222 
ENP,ioos.station.NOAA.NDBC:BNKF1:1,2019-11-02T13:00:00Z,25.0870,-80.5190,1.0,28.02,11111222 
ENP,ioos.station.NOAA.NDBC:BNKF1:1,2019-11-02T14:00:00Z,25.0870,-80.5190,1.0,28.14,11111222 
ENP,ioos.station.NOAA.NDBC:BNKF1:1,2019-11-02T15:00:00Z,25.0870,-80.5190,1.0,28.28,11111222 
ENP,ioos.station.NOAA.NDBC:BNKF1:1,2019-11-02T16:00:00Z,25.0870,-80.5190,1.0,28.35,11111222 
ENP,ioos.station.NOAA.NDBC:BNKF1:1,2019-11-02T17:00:00Z,25.0870,-80.5190,1.0,28.63,11111222 
ENP,ioos.station.NOAA.NDBC:BNKF1:1,2019-11-02T18:00:00Z,25.0870,-80.5190,1.0,28.99,11111222 
ENP,ioos.station.NOAA.NDBC:BNKF1:1,2019-11-02T19:00:00Z,25.0870,-80.5190,1.0,29.29,11111222 
ENP,ioos.station.NOAA.NDBC:BNKF1:1,2019-11-02T20:00:00Z,25.0870,-80.5190,1.0,29.47,11111222 
ENP,ioos.station.NOAA.NDBC:BNKF1:1,2019-11-02T21:00:00Z,25.0870,-80.5190,1.0,29.56,11111222 
ENP,ioos.station.NOAA.NDBC:BNKF1:1,2019-11-02T22:00:00Z,25.0870,-80.5190,1.0,29.43,11111222 
ENP,ioos.station.NOAA.NDBC:BNKF1:1,2019-11-02T23:00:00Z,25.0870,-80.5190,1.0,29.31,11111222 
ENP,ioos.station.NOAA.NDBC:BNKF1:1,2019-11-03T00:00:00Z,25.0870,-80.5190,1.0,29.15,11111222 
ENP,ioos.station.NOAA.NDBC:BNKF1:1,2019-11-03T01:00:00Z,25.0870,-80.5190,1.0,28.97,11111222 
ENP,ioos.station.NOAA.NDBC:BNKF1:1,2019-11-03T03:00:00Z,25.0870,-80.5190,1.0,28.83,11111222 
ENP,ioos.station.NOAA.NDBC:BNKF1:1,2019-11-03T05:00:00Z,25.0870,-80.5190,1.0,28.63,11111222 
ENP,ioos.station.NOAA.NDBC:BNKF1:1,2019-11-03T06:00:00Z,25.0870,-80.5190,1.0,28.48,11111222 
ENP,ioos.station.NOAA.NDBC:BNKF1:1,2019-11-03T07:00:00Z,25.0870,-80.5190,1.0,28.25,11111222 
ENP,ioos.station.NOAA.NDBC:BNKF1:1,2019-11-03T08:00:00Z,25.0870,-80.5190,1.0,28.14,11111222 
ENP,ioos.station.NOAA.NDBC:BNKF1:1,2019-11-03T09:00:00Z,25.0870,-80.5190,1.0,28.11,11111222 
ENP,ioos.station.NOAA.NDBC:BNKF1:1,2019-11-03T11:00:00Z,25.0870,-80.5190,1.0,27.99,11111222 
ENP,ioos.station.NOAA.NDBC:BNKF1:1,2019-11-03T12:00:00Z,25.0870,-80.5190,1.0,27.94,11111222 
ENP,ioos.station.NOAA.NDBC:BNKF1:1,2019-11-03T13:00:00Z,25.0870,-80.5190,1.0,27.89,11111222 
ENP,ioos.station.NOAA.NDBC:BNKF1:1,2019-11-03T14:00:00Z,25.0870,-80.5190,1.0,27.94,11111222 
ENP,ioos.station.NOAA.NDBC:BNKF1:1,2019-11-03T15:00:00Z,25.0870,-80.5190,1.0,28.07,11111222 
ENP,ioos.station.NOAA.NDBC:BNKF1:1,2019-11-03T16:00:00Z,25.0870,-80.5190,1.0,28.26,11111222 
ENP,ioos.station.NOAA.NDBC:BNKF1:1,2019-11-03T17:00:00Z,25.0870,-80.5190,1.0,28.52,11111222 
ENP,ioos.station.NOAA.NDBC:BNKF1:1,2019-11-03T18:00:00Z,25.0870,-80.5190,1.0,28.85,11111222 
ENP,ioos.station.NOAA.NDBC:BNKF1:1,2019-11-03T19:00:00Z,25.0870,-80.5190,1.0,29.01,11111222 
ENP,ioos.station.NOAA.NDBC:BNKF1:1,2019-11-03T20:00:00Z,25.0870,-80.5190,1.0,29.12,11111222 
ENP,ioos.station.NOAA.NDBC:BNKF1:1,2019-11-03T21:00:00Z,25.0870,-80.5190,1.0,29.28,11111222 
ENP,ioos.station.NOAA.NDBC:BNKF1:1,2019-11-03T22:00:00Z,25.0870,-80.5190,1.0,29.26,11111222 
ENP,ioos.station.NOAA.NDBC:BNKF1:1,2019-11-03T23:00:00Z,25.0870,-80.5190,1.0,29.1,11111222 
ENP,ioos.station.NOAA.NDBC:BNKF1:1,2019-11-04T00:00:00Z,25.0870,-80.5190,1.0,29.06,11111222 
ENP,ioos.station.NOAA.NDBC:BNKF1:1,2019-11-04T02:00:00Z,25.0870,-80.5190,1.0,28.58,11111222 
ENP,ioos.station.NOAA.NDBC:BNKF1:1,2019-11-04T03:00:00Z,25.0870,-80.5190,1.0,28.55,11111222 
ENP,ioos.station.NOAA.NDBC:BNKF1:1,2019-11-04T05:00:00Z,25.0870,-80.5190,1.0,28.35,11111222 
ENP,ioos.station.NOAA.NDBC:BNKF1:1,2019-11-04T16:00:00Z,25.0870,-80.5190,1.0,28.04,11111222 
ENP,ioos.station.NOAA.NDBC:BNKF1:1,2019-11-04T17:00:00Z,25.0870,-80.5190,1.0,28.28,11111222 
ENP,ioos.station.NOAA.NDBC:BNKF1:1,2019-11-04T18:00:00Z,25.0870,-80.5190,1.0,28.51,11111222 
ENP,ioos.station.NOAA.NDBC:BNKF1:1,2019-11-04T19:00:00Z,25.0870,-80.5190,1.0,28.71,11111222 
ENP,ioos.station.NOAA.NDBC:BNKF1:1,2019-11-04T20:00:00Z,25.0870,-80.5190,1.0,28.89,11111222 
ENP,ioos.station.NOAA.NDBC:BNKF1:1,2019-11-04T21:00:00Z,25.0870,-80.5190,1.0,28.94,11111222 
ENP,ioos.station.NOAA.NDBC:BNKF1:1,2019-11-04T22:00:00Z,25.0870,-80.5190,1.0,28.95,11111222 
ENP,ioos.station.NOAA.NDBC:BNKF1:1,2019-11-04T23:00:00Z,25.0870,-80.5190,1.0,28.77,11111222 
ENP,ioos.station.NOAA.NDBC:BNKF1:1,2019-11-05T00:00:00Z,25.0870,-80.5190,1.0,28.64,11111222 
ENP,ioos.station.NOAA.NDBC:BNKF1:1,2019-11-05T01:00:00Z,25.0870,-80.5190,1.0,28.52,11111222 
ENP,ioos.station.NOAA.NDBC:BNKF1:1,2019-11-05T03:00:00Z,25.0870,-80.5190,1.0,28.41,11111222 
ENP,ioos.station.NOAA.NDBC:BNKF1:1,2019-11-05T05:00:00Z,25.0870,-80.5190,1.0,28.21,11111222 
ENP,ioos.station.NOAA.NDBC:BNKF1:1,2019-11-05T06:00:00Z,25.0870,-80.5190,1.0,28.07,11111222 
ENP,ioos.station.NOAA.NDBC:BNKF1:1,2019-11-05T07:00:00Z,25.0870,-80.5190,1.0,27.98,11111222 
ENP,ioos.station.NOAA.NDBC:BNKF1:1,2019-11-05T12:00:00Z,25.0870,-80.5190,1.0,27.5,11111222 
ENP,ioos.station.NOAA.NDBC:BNKF1:1,2019-11-05T13:00:00Z,25.0870,-80.5190,1.0,27.45,11111222 
ENP,ioos.station.NOAA.NDBC:BNKF1:1,2019-11-05T14:00:00Z,25.0870,-80.5190,1.0,27.36,11111222 
ENP,ioos.station.NOAA.NDBC:BNKF1:1,2019-11-05T15:00:00Z,25.0870,-80.5190,1.0,27.5,11111222 
ENP,ioos.station.NOAA.NDBC:BNKF1:1,2019-11-05T16:00:00Z,25.0870,-80.5190,1.0,27.8,11111222 
ENP,ioos.station.NOAA.NDBC:BNKF1:1,2019-11-05T17:00:00Z,25.0870,-80.5190,1.0,28.12,11111222 
ENP,ioos.station.NOAA.NDBC:BNKF1:1,2019-11-05T18:00:00Z,25.0870,-80.5190,1.0,28.48,11111222 
ENP,ioos.station.NOAA.NDBC:BNKF1:1,2019-11-05T19:00:00Z,25.0870,-80.5190,1.0,28.83,11111222 
ENP,ioos.station.NOAA.NDBC:BNKF1:1,2019-11-05T20:00:00Z,25.0870,-80.5190,1.0,28.83,11111222 
ENP,ioos.station.NOAA.NDBC:BNKF1:1,2019-11-05T21:00:00Z,25.0870,-80.5190,1.0,28.89,11111222 
ENP,ioos.station.NOAA.NDBC:BNKF1:1,2019-11-05T22:00:00Z,25.0870,-80.5190,1.0,28.79,11111222 
ENP,ioos.station.NOAA.NDBC:BNKF1:1,2019-11-05T23:00:00Z,25.0870,-80.5190,1.0,28.63,11111222 
ENP,ioos.station.NOAA.NDBC:BNKF1:1,2019-11-06T00:00:00Z,25.0870,-80.5190,1.0,28.48,11111222 
ENP,ioos.station.NOAA.NDBC:BNKF1:1,2019-11-06T01:00:00Z,25.0870,-80.5190,1.0,28.34,11111222 
ENP,ioos.station.NOAA.NDBC:BNKF1:1,2019-11-06T02:00:00Z,25.0870,-80.5190,1.0,28.16,11111222 
ENP,ioos.station.NOAA.NDBC:BNKF1:1,2019-11-06T03:00:00Z,25.0870,-80.5190,1.0,28.08,11111222 
ENP,ioos.station.NOAA.NDBC:BNKF1:1,2019-11-06T05:00:00Z,25.0870,-80.5190,1.0,27.88,11111222 
ENP,ioos.station.NOAA.NDBC:BNKF1:1,2019-11-06T06:00:00Z,25.0870,-80.5190,1.0,27.89,11111222 
ENP,ioos.station.NOAA.NDBC:BNKF1:1,2019-11-06T07:00:00Z,25.0870,-80.5190,1.0,27.85,11111222 
ENP,ioos.station.NOAA.NDBC:BNKF1:1,2019-11-06T12:00:00Z,25.0870,-80.5190,1.0,27.31,11111222 
ENP,ioos.station.NOAA.NDBC:BNKF1:1,2019-11-06T13:00:00Z,25.0870,-80.5190,1.0,27.25,11111222 
ENP,ioos.station.NOAA.NDBC:BNKF1:1,2019-11-06T14:00:00Z,25.0870,-80.5190,1.0,27.19,11111222 
ENP,ioos.station.NOAA.NDBC:BNKF1:1,2019-11-06T15:00:00Z,25.0870,-80.5190,1.0,27.47,11111222 
ENP,ioos.station.NOAA.NDBC:BNKF1:1,2019-11-06T16:00:00Z,25.0870,-80.5190,1.0,27.64,11111222 
ENP,ioos.station.NOAA.NDBC:BNKF1:1,2019-11-06T17:00:00Z,25.0870,-80.5190,1.0,27.89,11111222 
ENP,ioos.station.NOAA.NDBC:BNKF1:1,2019-11-06T18:00:00Z,25.0870,-80.5190,1.0,28.12,11111222 
ENP,ioos.station.NOAA.NDBC:BNKF1:1,2019-11-06T19:00:00Z,25.0870,-80.5190,1.0,28.32,11111222 
ENP,ioos.station.NOAA.NDBC:BNKF1:1,2019-11-06T20:00:00Z,25.0870,-80.5190,1.0,28.57,11111222 
ENP,ioos.station.NOAA.NDBC:BNKF1:1,2019-11-06T21:00:00Z,25.0870,-80.5190,1.0,28.67,11111222 
ENP,ioos.station.NOAA.NDBC:BNKF1:1,2019-11-06T22:00:00Z,25.0870,-80.5190,1.0,28.56,11111222 
ENP,ioos.station.NOAA.NDBC:BNKF1:1,2019-11-06T23:00:00Z,25.0870,-80.5190,1.0,28.42,11111222 
ENP,ioos.station.NOAA.NDBC:BNKF1:1,2019-11-07T00:00:00Z,25.0870,-80.5190,1.0,28.19,11111222 
ENP,ioos.station.NOAA.NDBC:BNKF1:1,2019-11-07T01:00:00Z,25.0870,-80.5190,1.0,28.01,11111222 
ENP,ioos.station.NOAA.NDBC:BNKF1:1,2019-11-07T02:00:00Z,25.0870,-80.5190,1.0,27.92,11111222 
ENP,ioos.station.NOAA.NDBC:BNKF1:1,2019-11-07T03:00:00Z,25.0870,-80.5190,1.0,27.86,11111222 
ENP,ioos.station.NOAA.NDBC:BNKF1:1,2019-11-07T05:00:00Z,25.0870,-80.5190,1.0,27.51,11111222 
ENP,ioos.station.NOAA.NDBC:BNKF1:1,2019-11-07T06:00:00Z,25.0870,-80.5190,1.0,27.47,11111222 
ENP,ioos.station.NOAA.NDBC:BNKF1:1,2019-11-07T12:00:00Z,25.0870,-80.5190,1.0,26.68,11111222 
ENP,ioos.station.NOAA.NDBC:BNKF1:1,2019-11-07T13:00:00Z,25.0870,-80.5190,1.0,26.63,11111222 
ENP,ioos.station.NOAA.NDBC:BNKF1:1,2019-11-07T14:00:00Z,25.0870,-80.5190,1.0,26.77,11111222 
ENP,ioos.station.NOAA.NDBC:BNKF1:1,2019-11-07T15:00:00Z,25.0870,-80.5190,1.0,26.99,11111222 
ENP,ioos.station.NOAA.NDBC:BNKF1:1,2019-11-07T16:00:00Z,25.0870,-80.5190,1.0,27.28,11111222 
ENP,ioos.station.NOAA.NDBC:BNKF1:1,2019-11-07T17:00:00Z,25.0870,-80.5190,1.0,27.61,11111222 
ENP,ioos.station.NOAA.NDBC:BNKF1:1,2019-11-07T19:00:00Z,25.0870,-80.5190,1.0,28.26,11111222 
ENP,ioos.station.NOAA.NDBC:BNKF1:1,2019-11-07T20:00:00Z,25.0870,-80.5190,1.0,28.55,11111222 
ENP,ioos.station.NOAA.NDBC:BNKF1:1,2019-11-07T21:00:00Z,25.0870,-80.5190,1.0,28.68,11111222 
ENP,ioos.station.NOAA.NDBC:BNKF1:1,2019-11-07T22:00:00Z,25.0870,-80.5190,1.0,28.62,11111222 
ENP,ioos.station.NOAA.NDBC:BNKF1:1,2019-11-07T23:00:00Z,25.0870,-80.5190,1.0,28.45,11111222 
ENP,ioos.station.NOAA.NDBC:BNKF1:1,2019-11-08T00:00:00Z,25.0870,-80.5190,1.0,28.28,11111222 
ENP,ioos.station.NOAA.NDBC:BNKF1:1,2019-11-08T01:00:00Z,25.0870,-80.5190,1.0,27.99,11111222 
ENP,ioos.station.NOAA.NDBC:BNKF1:1,2019-11-08T02:00:00Z,25.0870,-80.5190,1.0,27.92,11111222 
ENP,ioos.station.NOAA.NDBC:BNKF1:1,2019-11-08T14:00:00Z,25.0870,-80.5190,1.0,27.24,11111222 
ENP,ioos.station.NOAA.NDBC:BNKF1:1,2019-11-08T15:00:00Z,25.0870,-80.5190,1.0,27.48,11111222 
ENP,ioos.station.NOAA.NDBC:BNKF1:1,2019-11-08T17:00:00Z,25.0870,-80.5190,1.0,27.49,11111222 
ENP,ioos.station.NOAA.NDBC:BNKF1:1,2019-11-08T19:00:00Z,25.0870,-80.5190,1.0,28.07,11111222 
ENP,ioos.station.NOAA.NDBC:BNKF1:1,2019-11-08T20:00:00Z,25.0870,-80.5190,1.0,28.45,11111222 
ENP,ioos.station.NOAA.NDBC:BNKF1:1,2019-11-08T21:00:00Z,25.0870,-80.5190,1.0,28.66,11111222 
ENP,ioos.station.NOAA.NDBC:BNKF1:1,2019-11-08T22:00:00Z,25.0870,-80.5190,1.0,28.68,11111222 
ENP,ioos.station.NOAA.NDBC:BNKF1:1,2019-11-08T23:00:00Z,25.0870,-80.5190,1.0,28.66,11111222 
ENP,ioos.station.NOAA.NDBC:BNKF1:1,2019-11-09T00:00:00Z,25.0870,-80.5190,1.0,28.62,11111222 
ENP,ioos.station.NOAA.NDBC:BNKF1:1,2019-11-09T01:00:00Z,25.0870,-80.5190,1.0,28.62,11111222 
ENP,ioos.station.NOAA.NDBC:BNKF1:1,2019-11-09T02:00:00Z,25.0870,-80.5190,1.0,28.57,11111222 
ENP,ioos.station.NOAA.NDBC:BNKF1:1,2019-11-09T03:00:00Z,25.0870,-80.5190,1.0,28.5,11111222 
ENP,ioos.station.NOAA.NDBC:BNKF1:1,2019-11-09T05:00:00Z,25.0870,-80.5190,1.0,28.27,11111222 
ENP,ioos.station.NOAA.NDBC:BNKF1:1,2019-11-09T07:00:00Z,25.0870,-80.5190,1.0,28.19,11111222 
ENP,ioos.station.NOAA.NDBC:BNKF1:1,2019-11-09T14:00:00Z,25.0870,-80.5190,1.0,27.31,11111222 
ENP,ioos.station.NOAA.NDBC:BNKF1:1,2019-11-09T15:00:00Z,25.0870,-80.5190,1.0,27.36,11111222 
ENP,ioos.station.NOAA.NDBC:BNKF1:1,2019-11-09T16:00:00Z,25.0870,-80.5190,1.0,27.33,11111222 
ENP,ioos.station.NOAA.NDBC:BNKF1:1,2019-11-09T17:00:00Z,25.0870,-80.5190,1.0,27.29,11111222 
ENP,ioos.station.NOAA.NDBC:BNKF1:1,2019-11-09T19:00:00Z,25.0870,-80.5190,1.0,27.11,11111222 
ENP,ioos.station.NOAA.NDBC:BNKF1:1,2019-11-09T20:00:00Z,25.0870,-80.5190,1.0,26.98,11111222 
ENP,ioos.station.NOAA.NDBC:BNKF1:1,2019-11-09T21:00:00Z,25.0870,-80.5190,1.0,26.55,11111222 
ENP,ioos.station.NOAA.NDBC:BNKF1:1,2019-11-09T22:00:00Z,25.0870,-80.5190,1.0,26.83,11111222 
ENP,ioos.station.NOAA.NDBC:BNKF1:1,2019-11-09T23:00:00Z,25.0870,-80.5190,1.0,26.68,11111222 
ENP,ioos.station.NOAA.NDBC:BNKF1:1,2019-11-10T00:00:00Z,25.0870,-80.5190,1.0,26.52,11111222 
ENP,ioos.station.NOAA.NDBC:BNKF1:1,2019-11-10T02:00:00Z,25.0870,-80.5190,1.0,26.19,11111222 
ENP,ioos.station.NOAA.NDBC:BNKF1:1,2019-11-10T03:00:00Z,25.0870,-80.5190,1.0,26.03,11111222 
ENP,ioos.station.NOAA.NDBC:BNKF1:1,2019-11-10T05:00:00Z,25.0870,-80.5190,1.0,25.82,11111222 
ENP,ioos.station.NOAA.NDBC:BNKF1:1,2019-11-10T07:00:00Z,25.0870,-80.5190,1.0,25.03,11111222 
ENP,ioos.station.NOAA.NDBC:BNKF1:1,2019-11-10T08:00:00Z,25.0870,-80.5190,1.0,25.02,11111222 
ENP,ioos.station.NOAA.NDBC:BNKF1:1,2019-11-10T12:00:00Z,25.0870,-80.5190,1.0,25.11,11111222 
ENP,ioos.station.NOAA.NDBC:BNKF1:1,2019-11-10T13:00:00Z,25.0870,-80.5190,1.0,25.03,11111222 
ENP,ioos.station.NOAA.NDBC:BNKF1:1,2019-11-10T14:00:00Z,25.0870,-80.5190,1.0,25.03,11111222 
ENP,ioos.station.NOAA.NDBC:BNKF1:1,2019-11-10T15:00:00Z,25.0870,-80.5190,1.0,25.13,11111222 
ENP,ioos.station.NOAA.NDBC:BNKF1:1,2019-11-10T16:00:00Z,25.0870,-80.5190,1.0,25.08,11111222 
ENP,ioos.station.NOAA.NDBC:BNKF1:1,2019-11-10T17:00:00Z,25.0870,-80.5190,1.0,25.15,11111222 
ENP,ioos.station.NOAA.NDBC:BNKF1:1,2019-11-10T19:00:00Z,25.0870,-80.5190,1.0,25.55,11111222 
ENP,ioos.station.NOAA.NDBC:BNKF1:1,2019-11-10T20:00:00Z,25.0870,-80.5190,1.0,25.64,11111222 
ENP,ioos.station.NOAA.NDBC:BNKF1:1,2019-11-10T21:00:00Z,25.0870,-80.5190,1.0,25.6,11111222 
ENP,ioos.station.NOAA.NDBC:BNKF1:1,2019-11-10T22:00:00Z,25.0870,-80.5190,1.0,25.43,11111222 
ENP,ioos.station.NOAA.NDBC:BNKF1:1,2019-11-11T02:00:00Z,25.0870,-80.5190,1.0,24.71,11111222 
ENP,ioos.station.NOAA.NDBC:BNKF1:1,2019-11-11T09:00:00Z,25.0870,-80.5190,1.0,24.17,11111222 
ENP,ioos.station.NOAA.NDBC:BNKF1:1,2019-11-11T12:00:00Z,25.0870,-80.5190,1.0,23.91,11111222 
ENP,ioos.station.NOAA.NDBC:BNKF1:1,2019-11-11T13:00:00Z,25.0870,-80.5190,1.0,23.88,11111222 
ENP,ioos.station.NOAA.NDBC:BNKF1:1,2019-11-11T15:00:00Z,25.0870,-80.5190,1.0,24.16,11111222 
ENP,ioos.station.NOAA.NDBC:BNKF1:1,2019-11-11T16:00:00Z,25.0870,-80.5190,1.0,24.44,11111222 
ENP,ioos.station.NOAA.NDBC:BNKF1:1,2019-11-11T17:00:00Z,25.0870,-80.5190,1.0,24.72,11111222 
ENP,ioos.station.NOAA.NDBC:BNKF1:1,2019-11-11T19:00:00Z,25.0870,-80.5190,1.0,25.26,11111222 
ENP,ioos.station.NOAA.NDBC:BNKF1:1,2019-11-11T20:00:00Z,25.0870,-80.5190,1.0,25.46,11111222 
ENP,ioos.station.NOAA.NDBC:BNKF1:1,2019-11-11T21:00:00Z,25.0870,-80.5190,1.0,25.58,11111222 
ENP,ioos.station.NOAA.NDBC:BNKF1:1,2019-11-11T22:00:00Z,25.0870,-80.5190,1.0,25.62,11111222 
ENP,ioos.station.NOAA.NDBC:BNKF1:1,2019-11-11T23:00:00Z,25.0870,-80.5190,1.0,25.57,11111222 
ENP,ioos.station.NOAA.NDBC:BNKF1:1,2019-11-12T00:00:00Z,25.0870,-80.5190,1.0,25.47,11111222 
ENP,ioos.station.NOAA.NDBC:BNKF1:1,2019-11-12T01:00:00Z,25.0870,-80.5190,1.0,25.37,11111222 
ENP,ioos.station.NOAA.NDBC:BNKF1:1,2019-11-12T02:00:00Z,25.0870,-80.5190,1.0,25.25,11111222 
ENP,ioos.station.NOAA.NDBC:BNKF1:1,2019-11-12T03:00:00Z,25.0870,-80.5190,1.0,25.07,11111222 
ENP,ioos.station.NOAA.NDBC:BNKF1:1,2019-11-12T05:00:00Z,25.0870,-80.5190,1.0,24.86,11111222 
ENP,ioos.station.NOAA.NDBC:BNKF1:1,2019-11-12T07:00:00Z,25.0870,-80.5190,1.0,24.82,11111222 
ENP,ioos.station.NOAA.NDBC:BNKF1:1,2019-11-12T08:00:00Z,25.0870,-80.5190,1.0,24.75,11111222 
ENP,ioos.station.NOAA.NDBC:BNKF1:1,2019-11-12T09:00:00Z,25.0870,-80.5190,1.0,24.69,11111222 
ENP,ioos.station.NOAA.NDBC:BNKF1:1,2019-11-12T12:00:00Z,25.0870,-80.5190,1.0,24.57,11111222 
ENP,ioos.station.NOAA.NDBC:BNKF1:1,2019-11-12T14:00:00Z,25.0870,-80.5190,1.0,24.62,11111222 
ENP,ioos.station.NOAA.NDBC:BNKF1:1,2019-11-12T15:00:00Z,25.0870,-80.5190,1.0,24.79,11111222 
ENP,ioos.station.NOAA.NDBC:BNKF1:1,2019-11-12T16:00:00Z,25.0870,-80.5190,1.0,25.06,11111222 
ENP,ioos.station.NOAA.NDBC:BNKF1:1,2019-11-12T17:00:00Z,25.0870,-80.5190,1.0,25.26,11111222 
ENP,ioos.station.NOAA.NDBC:BNKF1:1,2019-11-12T19:00:00Z,25.0870,-80.5190,1.0,25.81,11111222 
ENP,ioos.station.NOAA.NDBC:BNKF1:1,2019-11-12T20:00:00Z,25.0870,-80.5190,1.0,25.91,11111222 
ENP,ioos.station.NOAA.NDBC:BNKF1:1,2019-11-12T21:00:00Z,25.0870,-80.5190,1.0,25.8,11111222 
ENP,ioos.station.NOAA.NDBC:BNKF1:1,2019-11-12T22:00:00Z,25.0870,-80.5190,1.0,25.79,11111222 
ENP,ioos.station.NOAA.NDBC:BNKF1:1,2019-11-12T23:00:00Z,25.0870,-80.5190,1.0,25.67,11111222 
ENP,ioos.station.NOAA.NDBC:BNKF1:1,2019-11-13T00:00:00Z,25.0870,-80.5190,1.0,25.61,11111222 
ENP,ioos.station.NOAA.NDBC:BNKF1:1,2019-11-13T01:00:00Z,25.0870,-80.5190,1.0,25.57,11111222 
ENP,ioos.station.NOAA.NDBC:BNKF1:1,2019-11-13T02:00:00Z,25.0870,-80.5190,1.0,25.56,11111222 
ENP,ioos.station.NOAA.NDBC:BNKF1:1,2019-11-13T03:00:00Z,25.0870,-80.5190,1.0,25.54,11111222 
ENP,ioos.station.NOAA.NDBC:BNKF1:1,2019-11-13T05:00:00Z,25.0870,-80.5190,1.0,25.46,11111222 
ENP,ioos.station.NOAA.NDBC:BNKF1:1,2019-11-13T12:00:00Z,25.0870,-80.5190,1.0,24.76,11111222 
ENP,ioos.station.NOAA.NDBC:BNKF1:1,2019-11-13T13:00:00Z,25.0870,-80.5190,1.0,24.7,11111222 
ENP,ioos.station.NOAA.NDBC:BNKF1:1,2019-11-13T14:00:00Z,25.0870,-80.5190,1.0,24.7,11111222 
ENP,ioos.station.NOAA.NDBC:BNKF1:1,2019-11-13T15:00:00Z,25.0870,-80.5190,1.0,24.94,11111222 
ENP,ioos.station.NOAA.NDBC:BNKF1:1,2019-11-13T17:00:00Z,25.0870,-80.5190,1.0,25.41,11111222 
ENP,ioos.station.NOAA.NDBC:BNKF1:1,2019-11-13T18:00:00Z,25.0870,-80.5190,1.0,25.63,11111222 
ENP,ioos.station.NOAA.NDBC:BNKF1:1,2019-11-13T19:00:00Z,25.0870,-80.5190,1.0,25.83,11111222 
ENP,ioos.station.NOAA.NDBC:BNKF1:1,2019-11-13T20:00:00Z,25.0870,-80.5190,1.0,25.95,11111222 
ENP,ioos.station.NOAA.NDBC:BNKF1:1,2019-11-13T21:00:00Z,25.0870,-80.5190,1.0,25.99,11111222 
ENP,ioos.station.NOAA.NDBC:BNKF1:1,2019-11-13T22:00:00Z,25.0870,-80.5190,1.0,25.88,11111222 
ENP,ioos.station.NOAA.NDBC:BNKF1:1,2019-11-13T23:00:00Z,25.0870,-80.5190,1.0,25.76,11111222 
ENP,ioos.station.NOAA.NDBC:BNKF1:1,2019-11-14T00:00:00Z,25.0870,-80.5190,1.0,25.61,11111222 
ENP,ioos.station.NOAA.NDBC:BNKF1:1,2019-11-14T01:00:00Z,25.0870,-80.5190,1.0,25.54,11111222 
ENP,ioos.station.NOAA.NDBC:BNKF1:1,2019-11-14T02:00:00Z,25.0870,-80.5190,1.0,25.49,11111222 
ENP,ioos.station.NOAA.NDBC:BNKF1:1,2019-11-14T05:00:00Z,25.0870,-80.5190,1.0,25.29,11111222 
ENP,ioos.station.NOAA.NDBC:BNKF1:1,2019-11-14T06:00:00Z,25.0870,-80.5190,1.0,25.45,11111222 
ENP,ioos.station.NOAA.NDBC:BNKF1:1,2019-11-14T15:00:00Z,25.0870,-80.5190,1.0,25.11,11111222 
ENP,ioos.station.NOAA.NDBC:BNKF1:1,2019-11-14T16:00:00Z,25.0870,-80.5190,1.0,25.2,11111222 
ENP,ioos.station.NOAA.NDBC:BNKF1:1,2019-11-14T17:00:00Z,25.0870,-80.5190,1.0,25.35,11111222 
ENP,ioos.station.NOAA.NDBC:BNKF1:1,2019-11-14T18:00:00Z,25.0870,-80.5190,1.0,25.74,11111222 
ENP,ioos.station.NOAA.NDBC:BNKF1:1,2019-11-14T19:00:00Z,25.0870,-80.5190,1.0,25.94,11111222 
ENP,ioos.station.NOAA.NDBC:BNKF1:1,2019-11-14T20:00:00Z,25.0870,-80.5190,1.0,25.95,11111222 
ENP,ioos.station.NOAA.NDBC:BNKF1:1,2019-11-14T21:00:00Z,25.0870,-80.5190,1.0,25.88,11111222 
ENP,ioos.station.NOAA.NDBC:BNKF1:1,2019-11-14T23:00:00Z,25.0870,-80.5190,1.0,25.86,11111222 
ENP,ioos.station.NOAA.NDBC:BNKF1:1,2019-11-15T01:00:00Z,25.0870,-80.5190,1.0,25.71,11111222 
ENP,ioos.station.NOAA.NDBC:BNKF1:1,2019-11-15T02:00:00Z,25.0870,-80.5190,1.0,25.67,11111222 
ENP,ioos.station.NOAA.NDBC:BNKF1:1,2019-11-15T05:00:00Z,25.0870,-80.5190,1.0,25.59,11111222 
ENP,ioos.station.NOAA.NDBC:BNKF1:1,2019-11-15T06:00:00Z,25.0870,-80.5190,1.0,25.59,11111222 
ENP,ioos.station.NOAA.NDBC:BNKF1:1,2019-11-15T07:00:00Z,25.0870,-80.5190,1.0,25.57,11111222 
ENP,ioos.station.NOAA.NDBC:BNKF1:1,2019-11-15T08:00:00Z,25.0870,-80.5190,1.0,25.52,11111222 
ENP,ioos.station.NOAA.NDBC:BNKF1:1,2019-11-15T12:00:00Z,25.0870,-80.5190,1.0,25.52,11111222 
ENP,ioos.station.NOAA.NDBC:BNKF1:1,2019-11-15T14:00:00Z,25.0870,-80.5190,1.0,25.55,11111222 
ENP,ioos.station.NOAA.NDBC:BNKF1:1,2019-11-15T15:00:00Z,25.0870,-80.5190,1.0,25.65,11111222 
ENP,ioos.station.NOAA.NDBC:BNKF1:1,2019-11-15T16:00:00Z,25.0870,-80.5190,1.0,25.82,11111222 
ENP,ioos.station.NOAA.NDBC:BNKF1:1,2019-11-15T17:00:00Z,25.0870,-80.5190,1.0,26.04,11111222 
ENP,ioos.station.NOAA.NDBC:BNKF1:1,2019-11-15T18:00:00Z,25.0870,-80.5190,1.0,26.25,11111222 
ENP,ioos.station.NOAA.NDBC:BNKF1:1,2019-11-15T19:00:00Z,25.0870,-80.5190,1.0,26.44,11111222 
ENP,ioos.station.NOAA.NDBC:BNKF1:1,2019-11-16T01:00:00Z,25.0870,-80.5190,1.0,26.26,11111222 
ENP,ioos.station.NOAA.NDBC:BNKF1:1,2019-11-16T03:00:00Z,25.0870,-80.5190,1.0,26.17,11111222 
ENP,ioos.station.NOAA.NDBC:BNKF1:1,2019-11-16T05:00:00Z,25.0870,-80.5190,1.0,26.05,11111222 
ENP,ioos.station.NOAA.NDBC:BNKF1:1,2019-11-16T14:00:00Z,25.0870,-80.5190,1.0,25.09,11111222 
ENP,ioos.station.NOAA.NDBC:BNKF1:1,2019-11-16T15:00:00Z,25.0870,-80.5190,1.0,25.06,11111222 
ENP,ioos.station.NOAA.NDBC:BNKF1:1,2019-11-16T16:00:00Z,25.0870,-80.5190,1.0,25.16,11111222 
ENP,ioos.station.NOAA.NDBC:BNKF1:1,2019-11-16T17:00:00Z,25.0870,-80.5190,1.0,25.28,11111222 
ENP,ioos.station.NOAA.NDBC:BNKF1:1,2019-11-16T18:00:00Z,25.0870,-80.5190,1.0,25.42,11111222 
ENP,ioos.station.NOAA.NDBC:BNKF1:1,2019-11-16T19:00:00Z,25.0870,-80.5190,1.0,25.57,11111222 
ENP,ioos.station.NOAA.NDBC:BNKF1:1,2019-11-16T20:00:00Z,25.0870,-80.5190,1.0,25.58,11111222 
ENP,ioos.station.NOAA.NDBC:BNKF1:1,2019-11-16T21:00:00Z,25.0870,-80.5190,1.0,25.55,11111222 
ENP,ioos.station.NOAA.NDBC:BNKF1:1,2019-11-16T22:00:00Z,25.0870,-80.5190,1.0,25.36,11111222 
ENP,ioos.station.NOAA.NDBC:BNKF1:1,2019-11-16T23:00:00Z,25.0870,-80.5190,1.0,25.2,11111222 
ENP,ioos.station.NOAA.NDBC:BNKF1:1,2019-11-17T00:00:00Z,25.0870,-80.5190,1.0,24.99,11111222 
ENP,ioos.station.NOAA.NDBC:BNKF1:1,2019-11-17T02:00:00Z,25.0870,-80.5190,1.0,24.56,11111222 
ENP,ioos.station.NOAA.NDBC:BNKF1:1,2019-11-17T03:00:00Z,25.0870,-80.5190,1.0,24.45,11111222 